| time (UTC) | temp F | wind direction | speed MPH | gust MPH | rain 1hr in | rain 24hr in | rain mn in | humidity % | barometer mb |
| 20260510214600 | 84 | 195 | 1.0 | 3.0 | 0.00 | 0.00 | 0.00 | 42 | 1012.7 |
| 20260510214058 | 84 | 0 | 1.0 | 4.0 | 0.00 | 0.00 | 0.00 | 42 | 1012.7 |
| 20260510213600 | 83 | 355 | 2.0 | 6.0 | 0.00 | 0.00 | 0.00 | 43 | 1012.6 |
| 20260510213059 | 84 | 170 | 3.0 | 6.0 | 0.00 | 0.00 | 0.00 | 42 | 1012.6 |
| 20260510212600 | 84 | 212 | 2.0 | 6.0 | 0.00 | 0.00 | 0.00 | 42 | 1012.6 |
| 20260510212058 | 85 | 194 | 1.0 | 4.0 | 0.00 | 0.00 | 0.00 | 39 | 1012.6 |
| 20260510211824 | 85 | 319 | 1.0 | 4.0 | 0.00 | 0.00 | 0.00 | 39 | 1012.6 |
| 20260510211704 | 85 | 319 | 1.0 | 4.0 | 0.00 | 0.00 | 0.00 | 39 | 1012.6 |
| 20260510211056 | 85 | 239 | 1.0 | 4.0 | 0.00 | 0.00 | 0.00 | 41 | 1012.6 |
| 20260510210555 | 84 | 140 | 1.0 | 5.0 | 0.00 | 0.00 | 0.00 | 41 | 1012.7 |
| 20260510210108 | 84 | 0 | 1.0 | 5.0 | 0.00 | 0.00 | 0.00 | 42 | 1012.6 |
| 20260510205554 | 84 | 318 | 2.0 | 4.0 | 0.00 | 0.00 | 0.00 | 44 | 1012.6 |
| 20260510205053 | 84 | 0 | 1.0 | 4.0 | 0.00 | 0.00 | 0.00 | 45 | 1012.6 |
| 20260510204553 | 84 | 150 | 1.0 | 3.0 | 0.00 | 0.00 | 0.00 | 42 | 1012.5 |
| 20260510204254 | 84 | 285 | 1.0 | 3.0 | 0.00 | 0.00 | 0.00 | 43 | 1012.8 |
| 20260510204145 | 83 | 0 | 0.0 | 2.0 | 0.00 | 0.00 | 0.00 | 41 | 1012.7 |
| 20260510203657 | 84 | 285 | 1.0 | 3.0 | 0.00 | 0.00 | 0.00 | 43 | 1012.8 |
| 20260510203311 | 85 | 0 | 1.0 | 5.0 | 0.00 | 0.00 | 0.00 | 41 | 1012.7 |
| 20260510203156 | 85 | 0 | 1.0 | 5.0 | 0.00 | 0.00 | 0.00 | 41 | 1012.7 |
| 20260510202553 | 85 | 171 | 2.0 | 7.0 | 0.00 | 0.00 | 0.00 | 40 | 1012.7 |
| 20260510202308 | 85 | 314 | 2.0 | 7.0 | 0.00 | 0.00 | 0.00 | 40 | 1012.6 |
| 20260510202154 | 85 | 314 | 2.0 | 7.0 | 0.00 | 0.00 | 0.00 | 40 | 1012.6 |
| 20260510201811 | 84 | 335 | 2.0 | 4.0 | 0.00 | 0.00 | 0.00 | 40 | 1012.6 |
| 20260510201656 | 84 | 335 | 2.0 | 4.0 | 0.00 | 0.00 | 0.00 | 40 | 1012.6 |
| 20260510201050 | 84 | 175 | 2.0 | 4.0 | 0.00 | 0.00 | 0.00 | 44 | 1012.5 |
| 20260510200551 | 83 | 102 | 2.0 | 4.0 | 0.00 | 0.00 | 0.00 | 42 | 1012.5 |
| 20260510200322 | 83 | 194 | 1.0 | 4.0 | 0.00 | 0.00 | 0.00 | 44 | 1012.7 |
| 20260510200206 | 83 | 194 | 1.0 | 4.0 | 0.00 | 0.00 | 0.00 | 44 | 1012.7 |
| 20260510200026 | 83 | 203 | 0.0 | 3.0 | 0.00 | 0.00 | 0.00 | 45 | 1012.7 |
| 20260510195652 | 83 | 203 | 0.0 | 3.0 | 0.00 | 0.00 | 0.00 | 45 | 1012.7 |
| 20260510195527 | 84 | 0 | 1.0 | 2.0 | 0.00 | 0.00 | 0.00 | 45 | 1012.8 |
| 20260510195152 | 84 | 0 | 1.0 | 2.0 | 0.00 | 0.00 | 0.00 | 45 | 1012.8 |
| 20260510194547 | 84 | 0 | 1.0 | 3.0 | 0.00 | 0.00 | 0.00 | 46 | 1012.8 |
| 20260510194306 | 85 | 0 | 1.0 | 3.0 | 0.00 | 0.00 | 0.00 | 44 | 1012.8 |
| 20260510194152 | 85 | 0 | 1.0 | 3.0 | 0.00 | 0.00 | 0.00 | 44 | 1012.8 |
| 20260510193546 | 85 | 170 | 1.0 | 5.0 | 0.00 | 0.00 | 0.00 | 44 | 1012.8 |
| 20260510193047 | 86 | 72 | 1.0 | 5.0 | 0.00 | 0.00 | 0.00 | 42 | 1012.8 |
| 20260510192547 | 86 | 324 | 1.0 | 3.0 | 0.00 | 0.00 | 0.00 | 45 | 1012.9 |
| 20260510192315 | 86 | 0 | 1.0 | 3.0 | 0.00 | 0.00 | 0.00 | 42 | 1012.9 |
| 20260510192151 | 86 | 0 | 1.0 | 3.0 | 0.00 | 0.00 | 0.00 | 42 | 1012.9 |
| 20260510191809 | 86 | 355 | 1.0 | 3.0 | 0.00 | 0.00 | 0.00 | 43 | 1013.0 |
| 20260510191651 | 86 | 355 | 1.0 | 3.0 | 0.00 | 0.00 | 0.00 | 43 | 1013.0 |
| 20260510191048 | 85 | 325 | 1.0 | 3.0 | 0.00 | 0.00 | 0.00 | 45 | 1013.1 |
| 20260510190548 | 85 | 272 | 1.0 | 3.0 | 0.00 | 0.00 | 0.00 | 44 | 1013.2 |
| 20260510190059 | 85 | 216 | 1.0 | 3.0 | 0.00 | 0.00 | 0.00 | 44 | 1013.3 |
| 20260510185546 | 84 | 314 | 1.0 | 2.0 | 0.00 | 0.00 | 0.00 | 49 | 1013.3 |
| 20260510185047 | 84 | 343 | 1.0 | 3.0 | 0.00 | 0.00 | 0.00 | 49 | 1013.4 |
| 20260510184546 | 84 | 0 | 1.0 | 5.0 | 0.00 | 0.00 | 0.00 | 49 | 1013.5 |
| 20260510184308 | 85 | 0 | 2.0 | 5.0 | 0.00 | 0.00 | 0.00 | 47 | 1013.5 |
| 20260510184151 | 85 | 0 | 2.0 | 5.0 | 0.00 | 0.00 | 0.00 | 47 | 1013.5 |
| 20260510183547 | 85 | 149 | 1.0 | 5.0 | 0.00 | 0.00 | 0.00 | 48 | 1013.4 |
| 20260510183313 | 85 | 62 | 1.0 | 3.0 | 0.00 | 0.00 | 0.00 | 49 | 1013.3 |
| 20260510183151 | 85 | 62 | 1.0 | 3.0 | 0.00 | 0.00 | 0.00 | 49 | 1013.3 |
| 20260510182547 | 84 | 0 | 0.0 | 3.0 | 0.00 | 0.00 | 0.00 | 47 | 1013.4 |
| 20260510182300 | 84 | 131 | 1.0 | 4.0 | 0.00 | 0.00 | 0.00 | 48 | 1013.6 |
| 20260510182148 | 84 | 131 | 1.0 | 4.0 | 0.00 | 0.00 | 0.00 | 48 | 1013.6 |
| 20260510181543 | 85 | 0 | 1.0 | 4.0 | 0.00 | 0.00 | 0.00 | 47 | 1013.7 |
| 20260510181040 | 85 | 3 | 1.0 | 4.0 | 0.00 | 0.00 | 0.00 | 47 | 1013.6 |
| 20260510180541 | 84 | 347 | 1.0 | 4.0 | 0.00 | 0.00 | 0.00 | 47 | 1013.6 |
| 20260510180052 | 84 | 221 | 1.0 | 4.0 | 0.00 | 0.00 | 0.00 | 48 | 1013.6 |
| 20260510175538 | 84 | 51 | 1.0 | 3.0 | 0.00 | 0.00 | 0.00 | 48 | 1013.6 |
| 20260510175038 | 83 | 218 | 1.0 | 4.0 | 0.00 | 0.00 | 0.00 | 48 | 1013.6 |
| 20260510174759 | 83 | 0 | 1.0 | 4.0 | 0.00 | 0.00 | 0.00 | 50 | 1013.6 |
| 20260510174642 | 83 | 0 | 1.0 | 4.0 | 0.00 | 0.00 | 0.00 | 50 | 1013.6 |
| 20260510174314 | 83 | 61 | 2.0 | 4.0 | 0.00 | 0.00 | 0.00 | 49 | 1013.6 |
| 20260510174157 | 83 | 61 | 2.0 | 4.0 | 0.00 | 0.00 | 0.00 | 49 | 1013.6 |
| 20260510173540 | 83 | 26 | 2.0 | 5.0 | 0.00 | 0.00 | 0.00 | 48 | 1013.7 |
| 20260510173038 | 83 | 291 | 2.0 | 5.0 | 0.00 | 0.00 | 0.00 | 49 | 1013.6 |
| 20260510172538 | 83 | 261 | 2.0 | 5.0 | 0.00 | 0.00 | 0.00 | 50 | 1013.6 |
| 20260510172037 | 83 | 220 | 3.0 | 6.0 | 0.00 | 0.00 | 0.00 | 51 | 1013.7 |
| 20260510171537 | 83 | 161 | 2.0 | 6.0 | 0.00 | 0.00 | 0.00 | 51 | 1013.7 |
| 20260510171035 | 82 | 156 | 1.0 | 4.0 | 0.00 | 0.00 | 0.00 | 51 | 1013.7 |
| 20260510171026 | 82 | 295 | 0.0 | 3.0 | 0.00 | 0.00 | 0.00 | 53 | 1013.7 |
| 20260510170641 | 82 | 295 | 0.0 | 3.0 | 0.00 | 0.00 | 0.00 | 53 | 1013.7 |
| 20260510170302 | 82 | 0 | 1.0 | 3.0 | 0.00 | 0.00 | 0.00 | 54 | 1013.8 |
| 20260510170140 | 82 | 0 | 1.0 | 3.0 | 0.00 | 0.00 | 0.00 | 54 | 1013.8 |
| 20260510165533 | 81 | 93 | 2.0 | 4.0 | 0.00 | 0.00 | 0.00 | 53 | 1013.7 |
| 20260510165034 | 81 | 0 | 2.0 | 5.0 | 0.00 | 0.00 | 0.00 | 54 | 1013.8 |
| 20260510164534 | 81 | 109 | 2.0 | 6.0 | 0.00 | 0.00 | 0.00 | 53 | 1013.9 |
| 20260510164034 | 81 | 84 | 2.0 | 6.0 | 0.00 | 0.00 | 0.00 | 53 | 1013.9 |
| 20260510163534 | 81 | 77 | 2.0 | 5.0 | 0.00 | 0.00 | 0.00 | 54 | 1013.9 |
| 20260510163034 | 81 | 143 | 2.0 | 7.0 | 0.00 | 0.00 | 0.00 | 54 | 1013.9 |
| 20260510162531 | 80 | 127 | 3.0 | 10.0 | 0.00 | 0.00 | 0.00 | 54 | 1013.9 |
| 20260510162031 | 81 | 105 | 3.0 | 10.0 | 0.00 | 0.00 | 0.00 | 57 | 1014.0 |
| 20260510161540 | 81 | 113 | 2.0 | 8.0 | 0.00 | 0.00 | 0.00 | 54 | 1014.0 |
| 20260510161028 | 81 | 109 | 1.0 | 3.0 | 0.00 | 0.00 | 0.00 | 53 | 1014.0 |
| 20260510160749 | 81 | 271 | 2.0 | 5.0 | 0.00 | 0.00 | 0.00 | 54 | 1014.0 |
| 20260510160632 | 81 | 271 | 2.0 | 5.0 | 0.00 | 0.00 | 0.00 | 54 | 1014.0 |
| 20260510160250 | 81 | 147 | 2.0 | 5.0 | 0.00 | 0.00 | 0.00 | 53 | 1014.1 |
| 20260510160133 | 81 | 147 | 2.0 | 5.0 | 0.00 | 0.00 | 0.00 | 53 | 1014.1 |
| 20260510155528 | 81 | 35 | 1.0 | 5.0 | 0.00 | 0.00 | 0.00 | 54 | 1014.2 |
| 20260510155026 | 80 | 34 | 1.0 | 4.0 | 0.00 | 0.00 | 0.00 | 54 | 1014.3 |
| 20260510154527 | 80 | 0 | 1.0 | 4.0 | 0.00 | 0.00 | 0.00 | 55 | 1014.4 |
| 20260510154026 | 79 | 179 | 2.0 | 4.0 | 0.00 | 0.00 | 0.00 | 59 | 1014.3 |
| 20260510153526 | 79 | 78 | 2.0 | 7.0 | 0.00 | 0.00 | 0.00 | 60 | 1014.3 |
| 20260510153027 | 79 | 62 | 2.0 | 8.0 | 0.00 | 0.00 | 0.00 | 60 | 1014.3 |
| 20260510152527 | 79 | 95 | 2.0 | 8.0 | 0.00 | 0.00 | 0.00 | 61 | 1014.2 |
| 20260510152025 | 79 | 101 | 1.0 | 5.0 | 0.00 | 0.00 | 0.00 | 58 | 1014.2 |
| 20260510151524 | 79 | 326 | 1.0 | 5.0 | 0.00 | 0.00 | 0.00 | 58 | 1014.2 |
| 20260510151023 | 78 | 0 | 2.0 | 5.0 | 0.00 | 0.00 | 0.00 | 65 | 1014.2 |
| 20260510150522 | 78 | 130 | 2.0 | 5.0 | 0.00 | 0.00 | 0.00 | 62 | 1014.2 |
| 20260510150024 | 77 | 0 | 2.0 | 5.0 | 0.00 | 0.00 | 0.00 | 65 | 1014.3 |
| 20260510145743 | 78 | 106 | 2.0 | 7.0 | 0.00 | 0.00 | 0.00 | 61 | 1014.2 |
| 20260510145624 | 78 | 106 | 2.0 | 7.0 | 0.00 | 0.00 | 0.00 | 61 | 1014.2 |
| 20260510145019 | 79 | 14 | 2.0 | 7.0 | 0.00 | 0.00 | 0.00 | 64 | 1014.2 |
| 20260510145002 | 80 | 66 | 1.0 | 4.0 | 0.00 | 0.00 | 0.00 | 62 | 1014.2 |
| 20260510144623 | 80 | 66 | 1.0 | 4.0 | 0.00 | 0.00 | 0.00 | 62 | 1014.2 |
| 20260510144018 | 79 | 0 | 1.0 | 3.0 | 0.00 | 0.00 | 0.00 | 62 | 1014.2 |
| 20260510143518 | 79 | 214 | 1.0 | 3.0 | 0.00 | 0.00 | 0.00 | 64 | 1014.1 |
| 20260510143018 | 79 | 290 | 1.0 | 3.0 | 0.00 | 0.00 | 0.00 | 66 | 1014.1 |
| 20260510142735 | 79 | 0 | 1.0 | 3.0 | 0.00 | 0.00 | 0.00 | 64 | 1014.2 |
| 20260510142621 | 79 | 0 | 1.0 | 3.0 | 0.00 | 0.00 | 0.00 | 64 | 1014.2 |
| 20260510142240 | 79 | 198 | 1.0 | 3.0 | 0.00 | 0.00 | 0.00 | 64 | 1014.2 |
| 20260510142121 | 79 | 198 | 1.0 | 3.0 | 0.00 | 0.00 | 0.00 | 64 | 1014.2 |
| 20260510141515 | 79 | 223 | 0.0 | 3.0 | 0.00 | 0.00 | 0.00 | 65 | 1014.2 |
| 20260510141015 | 78 | 0 | 0.0 | 3.0 | 0.00 | 0.00 | 0.00 | 65 | 1014.2 |
| 20260510140513 | 78 | 0 | 1.0 | 3.0 | 0.00 | 0.00 | 0.00 | 65 | 1014.3 |
| 20260510140010 | 77 | 192 | 1.0 | 3.0 | 0.00 | 0.00 | 0.00 | 66 | 1014.3 |
| 20260510135508 | 78 | 181 | 1.0 | 3.0 | 0.00 | 0.00 | 0.00 | 65 | 1014.2 |
| 20260510135233 | 77 | 0 | 1.0 | 2.0 | 0.00 | 0.00 | 0.00 | 68 | 1014.2 |
| 20260510135115 | 77 | 0 | 1.0 | 2.0 | 0.00 | 0.00 | 0.00 | 68 | 1014.2 |
| 20260510134505 | 77 | 146 | 0.0 | 3.0 | 0.00 | 0.00 | 0.00 | 67 | 1014.2 |
| 20260510134232 | 76 | 0 | 0.0 | 3.0 | 0.00 | 0.01 | 0.00 | 69 | 1014.1 |
| 20260510134111 | 76 | 0 | 0.0 | 3.0 | 0.00 | 0.01 | 0.00 | 69 | 1014.1 |
| 20260510133505 | 76 | 0 | 1.0 | 4.0 | 0.00 | 0.01 | 0.00 | 72 | 1014.0 |
| 20260510133007 | 75 | 251 | 1.0 | 4.0 | 0.00 | 0.01 | 0.00 | 74 | 1014.0 |
| 20260510132723 | 74 | 0 | 1.0 | 4.0 | 0.00 | 0.01 | 0.00 | 74 | 1014.0 |
| 20260510132610 | 74 | 0 | 1.0 | 4.0 | 0.00 | 0.01 | 0.00 | 74 | 1014.0 |
| 20260510132005 | 74 | 144 | 1.0 | 4.0 | 0.00 | 0.01 | 0.00 | 75 | 1014.0 |
| 20260510131505 | 74 | 287 | 1.0 | 3.0 | 0.00 | 0.01 | 0.00 | 77 | 1014.1 |
| 20260510131443 | 74 | 173 | 1.0 | 3.0 | 0.00 | 0.01 | 0.00 | 75 | 1014.0 |
| 20260510131107 | 74 | 173 | 1.0 | 3.0 | 0.00 | 0.01 | 0.00 | 75 | 1014.0 |
| 20260510130504 | 74 | 17 | 0.0 | 3.0 | 0.00 | 0.01 | 0.00 | 76 | 1013.9 |
| 20260510130004 | 73 | 110 | 0.0 | 3.0 | 0.00 | 0.01 | 0.00 | 77 | 1013.9 |
| 20260510125728 | 72 | 109 | 0.0 | 2.0 | 0.00 | 0.01 | 0.00 | 81 | 1013.9 |
| 20260510125608 | 72 | 109 | 0.0 | 2.0 | 0.00 | 0.01 | 0.00 | 81 | 1013.9 |
| 20260510125004 | 71 | 34 | 0.0 | 2.0 | 0.00 | 0.01 | 0.00 | 80 | 1014.0 |
| 20260510124727 | 70 | 125 | 0.0 | 2.0 | 0.00 | 0.01 | 0.00 | 86 | 1013.9 |
| 20260510124504 | 70 | 125 | 0.0 | 2.0 | 0.00 | 0.01 | 0.00 | 86 | 1013.9 |
| 20260510124003 | 69 | 0 | 0.0 | 2.0 | 0.00 | 0.01 | 0.00 | 92 | 1013.9 |
| 20260510123504 | 68 | 0 | 1.0 | 2.0 | 0.00 | 0.01 | 0.00 | 96 | 1013.9 |
| 20260510123005 | 67 | 96 | 0.0 | 2.0 | 0.00 | 0.01 | 0.00 | 97 | 1013.9 |
| 20260510122503 | 66 | 184 | 0.0 | 2.0 | 0.00 | 0.01 | 0.00 | 98 | 1013.8 |
| 20260510122222 | 65 | 84 | 0.0 | 2.0 | 0.00 | 0.01 | 0.00 | 99 | 1013.8 |
| 20260510122104 | 65 | 84 | 0.0 | 2.0 | 0.00 | 0.01 | 0.00 | 99 | 1013.8 |
| 20260510121717 | 64 | 98 | 0.0 | 2.0 | 0.00 | 0.01 | 0.00 | 99 | 1013.9 |
| 20260510121604 | 64 | 98 | 0.0 | 2.0 | 0.00 | 0.01 | 0.00 | 99 | 1013.9 |
| 20260510120958 | 64 | 59 | 0.0 | 1.0 | 0.00 | 0.01 | 0.00 | 100 | 1013.9 |
| 20260510120459 | 63 | 187 | 0.0 | 1.0 | 0.00 | 0.01 | 0.00 | 100 | 1013.8 |
| 20260510120222 | 62 | 63 | 0.0 | 1.0 | 0.00 | 0.01 | 0.00 | 100 | 1013.7 |
| 20260510120059 | 62 | 63 | 0.0 | 1.0 | 0.00 | 0.01 | 0.00 | 100 | 1013.7 |
| 20260510115941 | 61 | 0 | 0.0 | 1.0 | 0.00 | 0.01 | 0.00 | 99 | 1013.5 |
| 20260510115600 | 61 | 0 | 0.0 | 1.0 | 0.00 | 0.01 | 0.00 | 99 | 1013.5 |
| 20260510114956 | 61 | 0 | 0.0 | 1.0 | 0.00 | 0.01 | 0.00 | 100 | 1013.4 |
| 20260510114722 | 61 | 0 | 0.0 | 1.0 | 0.00 | 0.01 | 0.00 | 100 | 1013.3 |
| 20260510114455 | 61 | 0 | 0.0 | 1.0 | 0.00 | 0.01 | 0.00 | 100 | 1013.3 |
| 20260510113956 | 61 | 61 | 0.0 | 1.0 | 0.00 | 0.01 | 0.00 | 99 | 1013.3 |
| 20260510113455 | 61 | 183 | 0.0 | 1.0 | 0.00 | 0.01 | 0.00 | 100 | 1013.3 |
| 20260510113217 | 61 | 0 | 0.0 | 1.0 | 0.00 | 0.01 | 0.00 | 99 | 1013.2 |
| 20260510113101 | 61 | 0 | 0.0 | 1.0 | 0.00 | 0.01 | 0.00 | 99 | 1013.2 |
| 20260510112704 | 60 | 0 | 0.0 | 1.0 | 0.00 | 0.01 | 0.00 | 99 | 1013.2 |
| 20260510112546 | 60 | 0 | 0.0 | 1.0 | 0.00 | 0.01 | 0.00 | 99 | 1013.2 |
| 20260510112206 | 60 | 0 | 0.0 | 1.0 | 0.00 | 0.01 | 0.00 | 100 | 1013.1 |
| 20260510111942 | 60 | 0 | 0.0 | 1.0 | 0.00 | 0.01 | 0.00 | 100 | 1013.1 |
| 20260510111658 | 60 | 72 | 1.0 | 1.0 | 0.00 | 0.01 | 0.00 | 99 | 1013.2 |
| 20260510111428 | 60 | 72 | 1.0 | 1.0 | 0.00 | 0.01 | 0.00 | 99 | 1013.2 |
| 20260510110931 | 60 | 0 | 0.0 | 1.0 | 0.00 | 0.01 | 0.00 | 100 | 1013.0 |
| 20260510110413 | 60 | 130 | 0.0 | 1.0 | 0.00 | 0.01 | 0.00 | 99 | 1013.0 |
| 20260510110133 | 60 | 0 | 0.0 | 1.0 | 0.00 | 0.01 | 0.00 | 99 | 1013.0 |
| 20260510110017 | 60 | 0 | 0.0 | 1.0 | 0.00 | 0.01 | 0.00 | 99 | 1013.0 |
| 20260510105412 | 60 | 0 | 0.0 | 2.0 | 0.00 | 0.01 | 0.00 | 99 | 1012.9 |
| 20260510104913 | 60 | 0 | 1.0 | 4.0 | 0.00 | 0.01 | 0.00 | 99 | 1012.8 |
| 20260510104637 | 60 | 222 | 0.0 | 4.0 | 0.00 | 0.01 | 0.00 | 99 | 1012.7 |
| 20260510104413 | 60 | 222 | 0.0 | 4.0 | 0.00 | 0.01 | 0.00 | 99 | 1012.7 |
| 20260510103913 | 60 | 0 | 0.0 | 2.0 | 0.00 | 0.01 | 0.00 | 100 | 1012.5 |
| 20260510103413 | 59 | 189 | 1.0 | 4.0 | 0.00 | 0.01 | 0.00 | 100 | 1012.5 |
| 20260510103357 | 59 | 212 | 1.0 | 4.0 | 0.00 | 0.01 | 0.00 | 99 | 1012.4 |
| 20260510103246 | 59 | 212 | 1.0 | 4.0 | 0.00 | 0.01 | 0.00 | 99 | 1012.4 |
| 20260510102413 | 59 | 182 | 0.0 | 1.0 | 0.00 | 0.01 | 0.00 | 99 | 1012.3 |
| 20260510101858 | 59 | 184 | 0.0 | 2.0 | 0.00 | 0.01 | 0.00 | 99 | 1012.2 |
| 20260510101358 | 59 | 0 | 1.0 | 3.0 | 0.00 | 0.01 | 0.00 | 99 | 1012.2 |
| 20260510101123 | 59 | 228 | 0.0 | 3.0 | 0.00 | 0.01 | 0.00 | 99 | 1012.2 |
| 20260510101003 | 59 | 228 | 0.0 | 3.0 | 0.00 | 0.01 | 0.00 | 99 | 1012.2 |
| 20260510100636 | 59 | 0 | 0.0 | 2.0 | 0.00 | 0.01 | 0.00 | 99 | 1012.1 |
| 20260510100518 | 59 | 0 | 0.0 | 2.0 | 0.00 | 0.01 | 0.00 | 99 | 1012.1 |
| 20260510095845 | 59 | 136 | 1.0 | 3.0 | 0.00 | 0.01 | 0.00 | 99 | 1012.0 |
| 20260510095343 | 59 | 0 | 1.0 | 3.0 | 0.00 | 0.01 | 0.00 | 99 | 1011.9 |
| 20260510094843 | 60 | 231 | 1.0 | 2.0 | 0.00 | 0.01 | 0.00 | 99 | 1011.9 |
| 20260510094344 | 60 | 0 | 0.0 | 2.0 | 0.00 | 0.01 | 0.00 | 99 | 1011.9 |
| 20260510093847 | 60 | 0 | 0.0 | 1.0 | 0.00 | 0.01 | 0.00 | 99 | 1011.8 |
| 20260510093347 | 60 | 240 | 0.0 | 1.0 | 0.00 | 0.01 | 0.00 | 99 | 1011.8 |
| 20260510092831 | 60 | 190 | 0.0 | 1.0 | 0.00 | 0.01 | 0.00 | 99 | 1011.7 |
| 20260510092331 | 60 | 0 | 1.0 | 2.0 | 0.00 | 0.01 | 0.00 | 99 | 1011.7 |
| 20260510092045 | 60 | 181 | 1.0 | 2.0 | 0.00 | 0.01 | 0.00 | 99 | 1011.6 |
| 20260510091817 | 60 | 181 | 1.0 | 2.0 | 0.00 | 0.01 | 0.00 | 99 | 1011.6 |
| 20260510091317 | 60 | 186 | 1.0 | 4.0 | 0.00 | 0.01 | 0.00 | 99 | 1011.6 |
| 20260510091031 | 60 | 181 | 1.0 | 4.0 | 0.00 | 0.01 | 0.00 | 99 | 1011.5 |
| 20260510090907 | 60 | 181 | 1.0 | 4.0 | 0.00 | 0.01 | 0.00 | 99 | 1011.5 |
| 20260510090519 | 60 | 149 | 1.0 | 3.0 | 0.00 | 0.01 | 0.00 | 99 | 1011.4 |
| 20260510090404 | 60 | 149 | 1.0 | 3.0 | 0.00 | 0.01 | 0.00 | 99 | 1011.4 |
| 20260510085802 | 59 | 231 | 1.0 | 3.0 | 0.00 | 0.01 | 0.00 | 99 | 1011.4 |
| 20260510085525 | 59 | 192 | 0.0 | 2.0 | 0.00 | 0.01 | 0.00 | 99 | 1011.2 |
| 20260510085301 | 59 | 192 | 0.0 | 2.0 | 0.00 | 0.01 | 0.00 | 99 | 1011.2 |
| 20260510085025 | 60 | 0 | 1.0 | 5.0 | 0.00 | 0.01 | 0.00 | 99 | 1011.2 |
| 20260510084907 | 60 | 0 | 1.0 | 5.0 | 0.00 | 0.01 | 0.00 | 99 | 1011.2 |
| 20260510084300 | 60 | 236 | 2.0 | 5.0 | 0.00 | 0.01 | 0.00 | 99 | 1011.2 |
| 20260510083800 | 59 | 184 | 1.0 | 3.0 | 0.00 | 0.01 | 0.00 | 99 | 1011.1 |
| 20260510083300 | 59 | 0 | 1.0 | 2.0 | 0.00 | 0.01 | 0.00 | 99 | 1011.2 |
| 20260510082747 | 59 | 242 | 1.0 | 2.0 | 0.00 | 0.01 | 0.00 | 99 | 1011.2 |
| 20260510082248 | 59 | 182 | 0.0 | 2.0 | 0.00 | 0.01 | 0.00 | 99 | 1011.1 |
| 20260510082010 | 59 | 0 | 1.0 | 4.0 | 0.00 | 0.01 | 0.00 | 99 | 1011.1 |
| 20260510081852 | 59 | 0 | 1.0 | 4.0 | 0.00 | 0.01 | 0.00 | 99 | 1011.1 |
| 20260510081246 | 59 | 0 | 1.0 | 4.0 | 0.00 | 0.01 | 0.00 | 99 | 1011.1 |
| 20260510081000 | 59 | 0 | 1.0 | 3.0 | 0.00 | 0.01 | 0.00 | 99 | 1011.1 |
| 20260510080836 | 59 | 0 | 1.0 | 3.0 | 0.00 | 0.01 | 0.00 | 99 | 1011.1 |
| 20260510080231 | 59 | 237 | 1.0 | 3.0 | 0.00 | 0.01 | 0.00 | 99 | 1011.1 |
| 20260510075733 | 60 | 164 | 1.0 | 3.0 | 0.00 | 0.01 | 0.00 | 99 | 1011.0 |
| 20260510075231 | 60 | 232 | 1.0 | 2.0 | 0.00 | 0.01 | 0.00 | 99 | 1010.9 |
| 20260510074959 | 60 | 228 | 1.0 | 2.0 | 0.00 | 0.01 | 0.00 | 99 | 1011.0 |
| 20260510074735 | 60 | 228 | 1.0 | 2.0 | 0.00 | 0.01 | 0.00 | 99 | 1011.0 |
| 20260510074231 | 60 | 0 | 0.0 | 2.0 | 0.00 | 0.01 | 0.00 | 99 | 1011.1 |
| 20260510073737 | 60 | 0 | 0.0 | 2.0 | 0.00 | 0.01 | 0.00 | 99 | 1011.0 |
| 20260510073233 | 60 | 0 | 1.0 | 2.0 | 0.00 | 0.01 | 0.00 | 99 | 1011.0 |
| 20260510072719 | 60 | 228 | 1.0 | 2.0 | 0.00 | 0.01 | 0.00 | 99 | 1011.0 |
| 20260510072216 | 60 | 162 | 1.0 | 3.0 | 0.00 | 0.01 | 0.00 | 99 | 1011.0 |
| 20260510071719 | 60 | 0 | 1.0 | 3.0 | 0.00 | 0.01 | 0.00 | 99 | 1010.9 |
| 20260510071201 | 60 | 240 | 0.0 | 2.0 | 0.00 | 0.01 | 0.00 | 99 | 1010.9 |
| 20260510070705 | 60 | 0 | 1.0 | 2.0 | 0.00 | 0.01 | 0.00 | 99 | 1011.0 |
| 20260510070423 | 60 | 178 | 1.0 | 2.0 | 0.00 | 0.01 | 0.00 | 99 | 1011.1 |
| 20260510070306 | 60 | 178 | 1.0 | 2.0 | 0.00 | 0.01 | 0.00 | 99 | 1011.1 |
| 20260510065931 | 60 | 180 | 1.0 | 3.0 | 0.00 | 0.01 | 0.00 | 99 | 1011.1 |
| 20260510065702 | 60 | 180 | 1.0 | 3.0 | 0.00 | 0.01 | 0.00 | 99 | 1011.1 |
| 20260510065203 | 60 | 209 | 1.0 | 3.0 | 0.00 | 0.01 | 0.00 | 99 | 1011.1 |
| 20260510064702 | 60 | 178 | 0.0 | 2.0 | 0.00 | 0.01 | 0.00 | 98 | 1011.0 |
| 20260510064214 | 60 | 220 | 1.0 | 4.0 | 0.00 | 0.01 | 0.00 | 99 | 1011.0 |
| 20260510064202 | 60 | 245 | 1.0 | 2.0 | 0.00 | 0.01 | 0.00 | 99 | 1011.0 |
| 20260510063704 | 60 | 220 | 1.0 | 4.0 | 0.00 | 0.01 | 0.00 | 99 | 1011.0 |
| 20260510063432 | 60 | 176 | 2.0 | 4.0 | 0.00 | 0.01 | 0.00 | 99 | 1010.9 |
| 20260510063205 | 60 | 176 | 2.0 | 4.0 | 0.00 | 0.01 | 0.00 | 99 | 1010.9 |
| 20260510062704 | 60 | 174 | 2.0 | 4.0 | 0.00 | 0.01 | 0.00 | 98 | 1010.9 |
| 20260510062205 | 60 | 240 | 2.0 | 4.0 | 0.00 | 0.01 | 0.00 | 98 | 1010.8 |
| 20260510061650 | 60 | 222 | 1.0 | 3.0 | 0.00 | 0.01 | 0.00 | 98 | 1010.8 |
| 20260510061152 | 60 | 188 | 1.0 | 3.0 | 0.00 | 0.01 | 0.00 | 98 | 1010.9 |
| 20260510060652 | 60 | 233 | 1.0 | 4.0 | 0.00 | 0.01 | 0.00 | 98 | 1010.9 |
| 20260510060152 | 60 | 245 | 1.0 | 4.0 | 0.00 | 0.01 | 0.00 | 98 | 1011.0 |
| 20260510055652 | 60 | 84 | 1.0 | 4.0 | 0.00 | 0.01 | 0.00 | 98 | 1011.2 |
| 20260510055153 | 60 | 231 | 1.0 | 3.0 | 0.00 | 0.01 | 0.00 | 98 | 1011.2 |
| 20260510054652 | 60 | 192 | 1.0 | 3.0 | 0.00 | 0.01 | 0.00 | 98 | 1011.1 |
| 20260510054152 | 60 | 0 | 0.0 | 3.0 | 0.00 | 0.01 | 0.00 | 98 | 1011.1 |
| 20260510053918 | 60 | 259 | 1.0 | 3.0 | 0.00 | 0.01 | 0.00 | 98 | 1011.2 |
| 20260510053757 | 60 | 259 | 1.0 | 3.0 | 0.00 | 0.01 | 0.00 | 98 | 1011.2 |
| 20260510053150 | 60 | 236 | 1.0 | 4.0 | 0.00 | 0.01 | 0.00 | 98 | 1011.3 |
| 20260510052635 | 60 | 231 | 1.0 | 4.0 | 0.00 | 0.01 | 0.00 | 98 | 1011.4 |
| 20260510052135 | 60 | 239 | 1.0 | 4.0 | 0.00 | 0.01 | 0.00 | 98 | 1011.5 |
| 20260510051637 | 60 | 237 | 1.0 | 3.0 | 0.00 | 0.01 | 0.00 | 98 | 1011.5 |
| 20260510051407 | 60 | 224 | 1.0 | 3.0 | 0.00 | 0.01 | 0.00 | 98 | 1011.5 |
| 20260510051240 | 60 | 224 | 1.0 | 3.0 | 0.00 | 0.01 | 0.00 | 98 | 1011.5 |
| 20260510050638 | 60 | 70 | 1.0 | 3.0 | 0.00 | 0.01 | 0.00 | 98 | 1011.5 |
| 20260510050136 | 61 | 138 | 1.0 | 3.0 | 0.00 | 0.01 | 0.00 | 98 | 1011.6 |
| 20260510045638 | 61 | 219 | 1.0 | 3.0 | 0.00 | 0.01 | 0.00 | 98 | 1011.6 |
| 20260510045121 | 61 | 246 | 1.0 | 2.0 | 0.00 | 0.01 | 0.00 | 98 | 1011.7 |
| 20260510044619 | 61 | 237 | 1.0 | 3.0 | 0.00 | 0.01 | 0.00 | 98 | 1011.6 |
| 20260510044349 | 61 | 133 | 1.0 | 3.0 | 0.00 | 0.01 | 0.00 | 98 | 1011.6 |
| 20260510044120 | 61 | 133 | 1.0 | 3.0 | 0.00 | 0.01 | 0.00 | 98 | 1011.6 |
| 20260510043603 | 61 | 231 | 2.0 | 3.0 | 0.00 | 0.01 | 0.00 | 98 | 1011.7 |
| 20260510043106 | 61 | 233 | 1.0 | 3.0 | 0.00 | 0.01 | 0.00 | 98 | 1011.6 |
| 20260510042607 | 61 | 224 | 1.0 | 2.0 | 0.00 | 0.01 | 0.00 | 97 | 1011.5 |
| 20260510042104 | 61 | 244 | 1.0 | 3.0 | 0.00 | 0.01 | 0.00 | 97 | 1011.4 |
| 20260510041555 | 61 | 265 | 1.0 | 3.0 | 0.00 | 0.01 | 0.00 | 97 | 1011.5 |
| 20260510041055 | 61 | 50 | 1.0 | 3.0 | 0.00 | 0.01 | 0.00 | 97 | 1011.5 |
| 20260510040556 | 61 | 0 | 1.0 | 4.0 | 0.00 | 0.01 | 0.00 | 97 | 1011.5 |
| 20260510040321 | 61 | 0 | 1.0 | 4.0 | 0.00 | 0.01 | 0.00 | 97 | 1011.3 |
| 20260510040204 | 61 | 0 | 1.0 | 4.0 | 0.00 | 0.01 | 0.00 | 97 | 1011.3 |
| 20260510035553 | 61 | 220 | 1.0 | 4.0 | 0.00 | 0.01 | 0.01 | 97 | 1011.3 |
| 20260510035322 | 61 | 222 | 2.0 | 4.0 | 0.00 | 0.01 | 0.01 | 97 | 1011.3 |
| 20260510035157 | 61 | 222 | 2.0 | 4.0 | 0.00 | 0.01 | 0.01 | 97 | 1011.3 |
| 20260510034605 | 61 | 239 | 2.0 | 4.0 | 0.00 | 0.01 | 0.01 | 97 | 1011.3 |
| 20260510034317 | 61 | 232 | 2.0 | 4.0 | 0.00 | 0.01 | 0.01 | 97 | 1011.3 |
| 20260510034157 | 61 | 232 | 2.0 | 4.0 | 0.00 | 0.01 | 0.01 | 97 | 1011.3 |
| 20260510033553 | 61 | 172 | 2.0 | 4.0 | 0.00 | 0.01 | 0.01 | 97 | 1011.3 |
| 20260510033053 | 61 | 238 | 1.0 | 3.0 | 0.00 | 0.01 | 0.01 | 96 | 1011.2 |
| 20260510032826 | 61 | 0 | 1.0 | 3.0 | 0.00 | 0.01 | 0.01 | 97 | 1011.1 |
| 20260510032552 | 61 | 0 | 1.0 | 3.0 | 0.00 | 0.01 | 0.01 | 97 | 1011.1 |
| 20260510032328 | 62 | 247 | 1.0 | 3.0 | 0.00 | 0.01 | 0.01 | 96 | 1011.1 |
| 20260510032050 | 62 | 247 | 1.0 | 3.0 | 0.00 | 0.01 | 0.01 | 96 | 1011.1 |
| 20260510031550 | 62 | 217 | 1.0 | 3.0 | 0.00 | 0.01 | 0.01 | 96 | 1011.1 |
| 20260510031048 | 62 | 198 | 1.0 | 3.0 | 0.00 | 0.01 | 0.01 | 96 | 1011.1 |
| 20260510030808 | 62 | 230 | 1.0 | 3.0 | 0.00 | 0.01 | 0.01 | 96 | 1011.1 |
| 20260510030653 | 62 | 230 | 1.0 | 3.0 | 0.00 | 0.01 | 0.01 | 96 | 1011.1 |
| 20260510030326 | 62 | 237 | 1.0 | 3.0 | 0.00 | 0.01 | 0.01 | 96 | 1011.1 |
| 20260510030205 | 62 | 237 | 1.0 | 3.0 | 0.00 | 0.01 | 0.01 | 96 | 1011.1 |
| 20260510025550 | 62 | 237 | 1.0 | 2.0 | 0.00 | 0.01 | 0.01 | 96 | 1011.1 |
| 20260510025048 | 62 | 246 | 1.0 | 2.0 | 0.00 | 0.01 | 0.01 | 96 | 1011.0 |
| 20260510025035 | 62 | 128 | 1.0 | 2.0 | 0.00 | 0.01 | 0.01 | 96 | 1011.0 |
| 20260510024653 | 62 | 128 | 1.0 | 2.0 | 0.00 | 0.01 | 0.01 | 96 | 1011.0 |
| 20260510024315 | 62 | 0 | 1.0 | 2.0 | 0.00 | 0.01 | 0.01 | 96 | 1010.9 |
| 20260510024153 | 62 | 0 | 1.0 | 2.0 | 0.00 | 0.01 | 0.01 | 96 | 1010.9 |
| 20260510023817 | 62 | 80 | 1.0 | 2.0 | 0.00 | 0.01 | 0.01 | 95 | 1011.0 |
| 20260510023550 | 62 | 80 | 1.0 | 2.0 | 0.00 | 0.01 | 0.01 | 95 | 1011.0 |
| 20260510023311 | 62 | 253 | 1.0 | 2.0 | 0.00 | 0.01 | 0.01 | 95 | 1010.9 |
| 20260510023048 | 62 | 253 | 1.0 | 2.0 | 0.00 | 0.01 | 0.01 | 95 | 1010.9 |
| 20260510022549 | 62 | 266 | 1.0 | 2.0 | 0.00 | 0.01 | 0.01 | 95 | 1010.9 |
| 20260510022046 | 63 | 235 | 0.0 | 2.0 | 0.00 | 0.01 | 0.01 | 95 | 1010.9 |
| 20260510021544 | 63 | 235 | 0.0 | 2.0 | 0.00 | 0.01 | 0.01 | 95 | 1010.8 |
| 20260510021302 | 63 | 63 | 1.0 | 2.0 | 0.00 | 0.01 | 0.01 | 95 | 1010.8 |
| 20260510021150 | 63 | 63 | 1.0 | 2.0 | 0.00 | 0.01 | 0.01 | 95 | 1010.8 |
| 20260510020806 | 63 | 243 | 1.0 | 3.0 | 0.00 | 0.01 | 0.01 | 94 | 1010.9 |
| 20260510020647 | 63 | 243 | 1.0 | 3.0 | 0.00 | 0.01 | 0.01 | 94 | 1010.9 |
| 20260510020056 | 63 | 228 | 1.0 | 3.0 | 0.00 | 0.01 | 0.01 | 94 | 1010.9 |
| 20260510015912 | 64 | 230 | 1.0 | 2.0 | 0.00 | 0.01 | 0.01 | 94 | 1010.9 |
| 20260510015805 | 64 | 230 | 1.0 | 2.0 | 0.00 | 0.01 | 0.01 | 94 | 1010.9 |
| 20260510015044 | 64 | 235 | 0.0 | 2.0 | 0.00 | 0.01 | 0.01 | 93 | 1010.8 |
| 20260510014542 | 64 | 0 | 0.0 | 2.0 | 0.00 | 0.01 | 0.01 | 93 | 1010.6 |
| 20260510014043 | 64 | 54 | 0.0 | 2.0 | 0.00 | 0.01 | 0.01 | 93 | 1010.5 |
| 20260510013803 | 64 | 245 | 0.0 | 2.0 | 0.00 | 0.01 | 0.01 | 93 | 1010.5 |
| 20260510013647 | 64 | 245 | 0.0 | 2.0 | 0.00 | 0.01 | 0.01 | 93 | 1010.5 |
| 20260510013044 | 64 | 228 | 0.0 | 1.0 | 0.00 | 0.01 | 0.01 | 93 | 1010.4 |
| 20260510012804 | 65 | 0 | 0.0 | 2.0 | 0.00 | 0.01 | 0.01 | 93 | 1010.4 |
| 20260510012543 | 65 | 0 | 0.0 | 2.0 | 0.00 | 0.01 | 0.01 | 93 | 1010.4 |
| 20260510012043 | 65 | 0 | 1.0 | 2.0 | 0.00 | 0.01 | 0.01 | 93 | 1010.3 |
| 20260510011810 | 65 | 236 | 1.0 | 2.0 | 0.00 | 0.01 | 0.01 | 92 | 1010.3 |
| 20260510011543 | 65 | 236 | 1.0 | 2.0 | 0.00 | 0.01 | 0.01 | 92 | 1010.3 |
| 20260510011040 | 65 | 235 | 0.0 | 2.0 | 0.00 | 0.01 | 0.01 | 92 | 1010.4 |
| 20260510011023 | 65 | 0 | 0.0 | 1.0 | 0.00 | 0.01 | 0.01 | 91 | 1010.4 |
| 20260510010915 | 65 | 0 | 0.0 | 1.0 | 0.00 | 0.01 | 0.01 | 91 | 1010.4 |
| 20260510010748 | 66 | 241 | 0.0 | 1.0 | 0.00 | 0.01 | 0.01 | 90 | 1010.4 |
| 20260510010035 | 66 | 241 | 0.0 | 1.0 | 0.00 | 0.01 | 0.01 | 90 | 1010.4 |
| 20260510005534 | 66 | 0 | 0.0 | 1.0 | 0.00 | 0.01 | 0.01 | 90 | 1010.2 |
| 20260510005252 | 66 | 174 | 0.0 | 1.0 | 0.00 | 0.01 | 0.01 | 89 | 1010.2 |
| 20260510005137 | 66 | 174 | 0.0 | 1.0 | 0.00 | 0.01 | 0.01 | 89 | 1010.2 |
| 20260510004531 | 66 | 129 | 0.0 | 1.0 | 0.00 | 0.01 | 0.01 | 89 | 1010.2 |
| 20260510004301 | 67 | 224 | 0.0 | 1.0 | 0.00 | 0.01 | 0.01 | 88 | 1010.0 |
| 20260510004032 | 67 | 224 | 0.0 | 1.0 | 0.00 | 0.01 | 0.01 | 88 | 1010.0 |
| 20260510003531 | 67 | 0 | 0.0 | 1.0 | 0.00 | 0.01 | 0.01 | 88 | 1010.0 |
| 20260510003032 | 67 | 0 | 0.0 | 1.0 | 0.00 | 0.01 | 0.01 | 88 | 1010.0 |
| 20260510002757 | 68 | 243 | 0.0 | 1.0 | 0.00 | 0.01 | 0.01 | 87 | 1010.1 |
| 20260510002638 | 68 | 243 | 0.0 | 1.0 | 0.00 | 0.01 | 0.01 | 87 | 1010.1 |
| 20260510002032 | 68 | 0 | 0.0 | 1.0 | 0.00 | 0.01 | 0.01 | 87 | 1010.1 |
| 20260510001753 | 68 | 258 | 0.0 | 1.0 | 0.00 | 0.01 | 0.01 | 86 | 1010.2 |
| 20260510001634 | 68 | 258 | 0.0 | 1.0 | 0.00 | 0.01 | 0.01 | 86 | 1010.2 |
| 20260510001256 | 68 | 0 | 0.0 | 1.0 | 0.00 | 0.01 | 0.01 | 86 | 1010.1 |
| 20260510001030 | 68 | 0 | 0.0 | 1.0 | 0.00 | 0.01 | 0.01 | 86 | 1010.1 |
| 20260510000723 | 69 | 0 | 0.0 | 1.0 | 0.00 | 0.01 | 0.01 | 85 | 1010.1 |
| 20260510000533 | 69 | 197 | 0.0 | 1.0 | 0.00 | 0.01 | 0.01 | 85 | 1010.1 |
| 20260509235517 | 69 | 0 | 0.0 | 1.0 | 0.00 | 0.01 | 0.01 | 84 | 1010.0 |
| 20260509235251 | 69 | 242 | 0.0 | 1.0 | 0.00 | 0.01 | 0.01 | 84 | 1010.0 |
| 20260509235017 | 69 | 242 | 0.0 | 1.0 | 0.00 | 0.01 | 0.01 | 84 | 1010.0 |
| 20260509234517 | 70 | 0 | 0.0 | 1.0 | 0.00 | 0.01 | 0.01 | 82 | 1009.9 |
| 20260509234017 | 70 | 0 | 0.0 | 1.0 | 0.00 | 0.01 | 0.01 | 82 | 1009.8 |
| 20260509233518 | 71 | 0 | 0.0 | 1.0 | 0.00 | 0.01 | 0.01 | 81 | 1009.6 |
| 20260509233235 | 71 | 0 | 0.0 | 0.0 | 0.00 | 0.01 | 0.01 | 80 | 1009.4 |
| 20260509233122 | 71 | 0 | 0.0 | 0.0 | 0.00 | 0.01 | 0.01 | 80 | 1009.4 |
| 20260509232518 | 71 | 0 | 0.0 | 1.0 | 0.00 | 0.01 | 0.01 | 79 | 1009.4 |
| 20260509232243 | 72 | 0 | 0.0 | 1.0 | 0.00 | 0.01 | 0.01 | 79 | 1009.6 |
| 20260509232018 | 72 | 0 | 0.0 | 1.0 | 0.00 | 0.01 | 0.01 | 79 | 1009.6 |
| 20260509231741 | 72 | 189 | 0.0 | 1.0 | 0.00 | 0.01 | 0.01 | 78 | 1009.4 |
| 20260509231620 | 72 | 189 | 0.0 | 1.0 | 0.00 | 0.01 | 0.01 | 78 | 1009.4 |
| 20260509231014 | 72 | 0 | 0.0 | 1.0 | 0.00 | 0.01 | 0.01 | 77 | 1009.4 |
| 20260509230515 | 73 | 236 | 0.0 | 2.0 | 0.00 | 0.01 | 0.01 | 76 | 1009.4 |
| 20260509230508 | 73 | 0 | 0.0 | 2.0 | 0.00 | 0.01 | 0.01 | 76 | 1009.3 |
| 20260509230117 | 73 | 0 | 0.0 | 2.0 | 0.00 | 0.01 | 0.01 | 76 | 1009.3 |
| 20260509225509 | 73 | 102 | 0.0 | 2.0 | 0.00 | 0.01 | 0.01 | 75 | 1009.2 |
| 20260509225010 | 73 | 181 | 0.0 | 1.0 | 0.00 | 0.01 | 0.01 | 75 | 1009.1 |
| 20260509224729 | 73 | 0 | 0.0 | 2.0 | 0.00 | 0.01 | 0.01 | 76 | 1009.2 |
| 20260509224614 | 73 | 0 | 0.0 | 2.0 | 0.00 | 0.01 | 0.01 | 76 | 1009.2 |
| 20260509224008 | 73 | 0 | 0.0 | 2.0 | 0.00 | 0.01 | 0.01 | 76 | 1009.4 |
| 20260509223508 | 73 | 234 | 0.0 | 2.0 | 0.00 | 0.01 | 0.01 | 75 | 1009.4 |
| 20260509223009 | 73 | 157 | 1.0 | 2.0 | 0.00 | 0.01 | 0.01 | 75 | 1009.3 |
| 20260509222508 | 73 | 228 | 1.0 | 2.0 | 0.00 | 0.01 | 0.01 | 74 | 1009.3 |
| 20260509222008 | 73 | 0 | 0.0 | 2.0 | 0.00 | 0.01 | 0.01 | 74 | 1009.4 |
| 20260509221508 | 73 | 0 | 0.0 | 2.0 | 0.00 | 0.01 | 0.01 | 73 | 1009.5 |
| 20260509221008 | 73 | 0 | 0.0 | 2.0 | 0.00 | 0.01 | 0.01 | 73 | 1009.5 |
| 20260509220506 | 73 | 0 | 1.0 | 4.0 | 0.00 | 0.01 | 0.01 | 73 | 1009.4 |
| 20260509220002 | 73 | 0 | 1.0 | 6.0 | 0.00 | 0.01 | 0.01 | 72 | 1009.4 |
| 20260509215502 | 74 | 200 | 2.0 | 6.0 | 0.00 | 0.01 | 0.01 | 72 | 1009.4 |
| 20260509215002 | 74 | 99 | 1.0 | 4.0 | 0.00 | 0.01 | 0.01 | 72 | 1009.4 |